Вернуться в каталог

FENGYUN 1C DEB

LostSSO
NORAD 46446·DEBRIS·🇨🇳 China

Запущен May 10, 1999 с Taiyuan Satellite Launch Center

Loading…

Ближайшие Пролёты (ближайшие 24 часа)

TLE

УстаревшееSource: Space-Track

Эпоха: Jan 15, 2024, 11:05 UTC

1 46446U 99025EZB 24015.46213056  .00008913  00000-0  39776-2 0  9993
2 46446  98.8787 107.6079 0067085 262.7126  96.6422 14.21746015771358

Отслеживайте FENGYUN 1C DEB в реальном времени с AllMySat

Download on the App Store